Starlink 32445

operational
NORAD ID: 61546 Int'l Des: 2024-184 Owner: SPXS Country: US Constellation: starlink
LEOCIRCULAR

Über Starlink 32445

Beschreibung wird geladen...

Live-Position

3D-Globus wird geladen...

Nächste Überflüge

Höhenverlauf

Altitude vs Time

uPlot chart will show altitude changes over time

Zweizeiliger Elementsatz

1 61546U 24184Q 25352.50226598 .00000820 00000-0 39819-4 0 9999
2 61546 53.1617 31.2807 0001214 79.1652 280.9485 15.30191581 66075
Epoch: 18. Dez. 2025 • Age: 18 hours

Aktueller Status

Höhe 479.8 km
Geschwindigkeit 7.63 km/s
Subsatellitenpunkt 47.52°N, 21.52°W
Startdatum 15. Okt. 2024
Alter 1.1 years
Typ internet

Technische Details

Klassifizierung Payload
Masse 730.00 kg
Trockenmasse 700.00 kg
Gesamtmasse 730.00 kg
Länge 0.30 m
Durchmesser 4.10 m
Spannweite 29.00 m
Form Box + pan
Hersteller SPXS
Bus-Typ Starlink V2M
Phasenstatus In Orbit
Besitzer/Staat SPXS/US

Große Konstellationen

Loading constellations...